When you browse on this site, cookies collect data to enhance your experience and personalize the content and advertising you see.
Visit our Privacy Policy to learn more. By continuing to use the site, you agree to this use of cookies and data.
  • In Hungary
  • List of Countries
  • For 7 days
  • Water Temperature
  • Weather Map
  • News
  • Weather Widgets
  • user-avatar
    Login

    Hourly Weather Tavriis'ke

    Today, 17 November, Sunday

    Time Temperature Precipitation Wind Pressure Humidity
    00:00 +7°C° 0 mm 3 mps 769 mmHg 73%
    01:00 +7°C° 0 mm 3 mps 769 mmHg 73%
    02:00 +6°C° 0 mm 4 mps 769 mmHg 74%
    03:00 +6°C° 0 mm 4 mps 769 mmHg 76%
    04:00 +6°C° 0 mm 4 mps 769 mmHg 77%
    05:00 +5°C° 0 mm 4 mps 769 mmHg 78%
    06:00 +6°C° 0 mm 4 mps 769 mmHg 79%
    07:00 +6°C° 0 mm 5 mps 769 mmHg 81%
    08:00 +7°C° 0 mm 5 mps 769 mmHg 82%
    09:00 +8°C° 0 mm 5 mps 769 mmHg 77%
    10:00 +10°C° 0 mm 5 mps 769 mmHg 73%
    11:00 +11°C° 0 mm 6 mps 769 mmHg 68%
    12:00 +11°C° 0 mm 6 mps 768 mmHg 68%
    13:00 +11°C° 0 mm 6 mps 768 mmHg 68%
    14:00 +11°C° 0 mm 6 mps 768 mmHg 68%
    15:00 +10°C° 0 mm 6 mps 768 mmHg 74%
    16:00 +9°C° 0 mm 6 mps 768 mmHg 80%
    17:00 +8°C° 0 mm 6 mps 767 mmHg 86%
    18:00 +8°C° 0 mm 5 mps 768 mmHg 88%
    19:00 +7°C° 0 mm 5 mps 768 mmHg 89%
    20:00 +7°C° 0 mm 5 mps 768 mmHg 91%
    21:00 +7°C° 0 mm 5 mps 768 mmHg 91%
    22:00 +7°C° 0 mm 4 mps 767 mmHg 92%
    23:00 +7°C° 0 mm 4 mps 767 mmHg 92%

    Tomorrow, 18 November, Monday

    Time Temperature Precipitation Wind Pressure Humidity
    00:00 +7°C° 0 mm 4 mps 767 mmHg 91%
    01:00 +7°C° 0 mm 4 mps 767 mmHg 90%
    02:00 +7°C° 0 mm 4 mps 767 mmHg 90%
    03:00 +7°C° 0 mm 4 mps 767 mmHg 89%
    04:00 +7°C° 0 mm 4 mps 766 mmHg 89%
    05:00 +7°C° 0 mm 4 mps 766 mmHg 89%
    06:00 +7°C° 0 mm 4 mps 766 mmHg 88%
    07:00 +7°C° 0 mm 4 mps 767 mmHg 87%
    08:00 +7°C° 0 mm 4 mps 767 mmHg 86%
    09:00 +10°C° 0 mm 4 mps 767 mmHg 80%
    10:00 +11°C° 0 mm 4 mps 767 mmHg 73%
    11:00 +13°C° 0 mm 4 mps 767 mmHg 66%
    12:00 +13°C° 0 mm 3 mps 767 mmHg 65%
    13:00 +13°C° 0 mm 3 mps 767 mmHg 64%
    14:00 +14°C° 0 mm 3 mps 767 mmHg 62%
    15:00 +12°C° 0 mm 3 mps 767 mmHg 70%
    16:00 +11°C° 0 mm 3 mps 767 mmHg 78%
    17:00 +8°C° 0 mm 4 mps 767 mmHg 86%
    18:00 +9°C° 0 mm 3 mps 767 mmHg 88%
    19:00 +8°C° 0 mm 3 mps 767 mmHg 89%
    20:00 +8°C° 0 mm 3 mps 767 mmHg 91%
    21:00 +8°C° 0 mm 2 mps 767 mmHg 91%
    22:00 +7°C° 0 mm 2 mps 767 mmHg 91%
    23:00 +8°C° 0 mm 1 mps 768 mmHg 91%

    Day after tomorrow, 19 November, Tuesday

    Time Temperature Precipitation Wind Pressure Humidity
    00:00 +8°C° 0 mm 1 mps 768 mmHg 91%
    01:00 +8°C° 0 mm 1 mps 768 mmHg 91%
    02:00 +8°C° 0 mm 1 mps 768 mmHg 91%
    03:00 +6°C° 0 mm 2 mps 768 mmHg 91%
    04:00 +6°C° 0 mm 2 mps 768 mmHg 91%
    05:00 +6°C° 0 mm 2 mps 768 mmHg 91%
    06:00 +6°C° 0 mm 2 mps 768 mmHg 90%
    07:00 +6°C° 0 mm 2 mps 769 mmHg 90%
    08:00 +7°C° 0 mm 2 mps 769 mmHg 89%
    09:00 +8°C° 0 mm 2 mps 769 mmHg 80%
    10:00 +10°C° 0 mm 2 mps 769 mmHg 71%
    11:00 +12°C° 0 mm 2 mps 769 mmHg 62%
    12:00 +13°C° 0 mm 2 mps 769 mmHg 59%
    13:00 +13°C° 0 mm 2 mps 768 mmHg 56%
    14:00 +14°C° 0 mm 2 mps 768 mmHg 53%
    15:00 +13°C° 0 mm 2 mps 768 mmHg 57%
    16:00 +12°C° 0 mm 2 mps 768 mmHg 62%
    17:00 +9°C° 0 mm 2 mps 768 mmHg 67%
    18:00 +9°C° 0 mm 2 mps 768 mmHg 69%
    19:00 +9°C° 0 mm 2 mps 769 mmHg 72%
    20:00 +8°C° 0 mm 2 mps 769 mmHg 75%
    21:00 +8°C° 0 mm 2 mps 768 mmHg 76%
    22:00 +8°C° 0 mm 2 mps 768 mmHg 78%
    23:00 +8°C° 0 mm 2 mps 768 mmHg 80%

    20 November, Wednesday

    Time Temperature Precipitation Wind Pressure Humidity
    00:00 +7°C° 0 mm 2 mps 768 mmHg 80%
    01:00 +7°C° 0 mm 2 mps 768 mmHg 80%
    02:00 +7°C° 0 mm 2 mps 768 mmHg 80%
    03:00 +7°C° 0 mm 3 mps 768 mmHg 82%
    04:00 +5°C° 0 mm 3 mps 768 mmHg 83%
    05:00 +5°C° 0 mm 3 mps 768 mmHg 84%
    06:00 +5°C° 0 mm 3 mps 768 mmHg 85%
    07:00 +5°C° 0 mm 4 mps 768 mmHg 85%
    08:00 +6°C° 0 mm 4 mps 768 mmHg 85%
    09:00 +7°C° 0 mm 5 mps 768 mmHg 81%
    10:00 +8°C° 0 mm 5 mps 768 mmHg 77%
    11:00 +10°C° 0 mm 6 mps 768 mmHg 72%
    12:00 +10°C° 0 mm 7 mps 767 mmHg 72%
    13:00 +10°C° 0 mm 7 mps 767 mmHg 71%
    14:00 +10°C° 0 mm 8 mps 767 mmHg 71%
    15:00 +9°C° 0 mm 8 mps 767 mmHg 74%
    16:00 +8°C° 0 mm 9 mps 767 mmHg 76%
    17:00 +7°C° 0 mm 9 mps 767 mmHg 79%
    18:00 +7°C° 0 mm 9 mps 767 mmHg 77%
    19:00 +7°C° 0 mm 10 mps 768 mmHg 75%
    20:00 +7°C° 0 mm 10 mps 768 mmHg 73%
    21:00 +6°C° 0 mm 10 mps 768 mmHg 74%
    22:00 +6°C° 0 mm 10 mps 768 mmHg 75%
    23:00 +6°C° 0 mm 11 mps 768 mmHg 77%

    21 November, Thursday

    Time Temperature Precipitation Wind Pressure Humidity
    00:00 +4°C° 0 mm 11 mps 768 mmHg 76%
    01:00 +4°C° 0 mm 12 mps 768 mmHg 75%
    02:00 +4°C° 0 mm 12 mps 769 mmHg 74%
    03:00 +3°C° 0 mm 12 mps 769 mmHg 74%
    04:00 +3°C° 0 mm 12 mps 769 mmHg 74%
    05:00 +2°C° 0 mm 12 mps 769 mmHg 74%
    06:00 +2°C° 0 mm 12 mps 769 mmHg 74%
    07:00 +2°C° 0 mm 12 mps 770 mmHg 74%
    08:00 +2°C° 0 mm 12 mps 770 mmHg 74%
    09:00 0°C° 0 mm 12 mps 770 mmHg 73%
    10:00 0°C° 0 mm 12 mps 771 mmHg 72%
    11:00 0°C° 0 mm 12 mps 771 mmHg 71%
    12:00 0°C° 0 mm 12 mps 771 mmHg 70%
    13:00 0°C° 0 mm 13 mps 770 mmHg 70%
    14:00 0°C° 0 mm 13 mps 770 mmHg 69%
    15:00 0°C° 0 mm 13 mps 770 mmHg 68%
    16:00 0°C° 0 mm 13 mps 770 mmHg 67%
    17:00 0°C° 0 mm 13 mps 770 mmHg 66%
    18:00 0°C° 0 mm 13 mps 770 mmHg 65%
    19:00 0°C° 0 mm 12 mps 771 mmHg 65%
    20:00 0°C° 0 mm 12 mps 771 mmHg 64%
    21:00 0°C° 0 mm 12 mps 771 mmHg 65%
    22:00 -1°C° 0 mm 12 mps 771 mmHg 65%
    23:00 -1°C° 0 mm 12 mps 771 mmHg 66%

    22 November, Friday

    Time Temperature Precipitation Wind Pressure Humidity
    00:00 -1°C° 0 mm 12 mps 771 mmHg 67%
    01:00 -1°C° 0 mm 12 mps 771 mmHg 68%
    02:00 -1°C° 0 mm 12 mps 771 mmHg 69%
    03:00 -1°C° 0.1 mm 11 mps 771 mmHg 72%
    04:00 -1°C° 0.1 mm 11 mps 770 mmHg 74%
    05:00 -1°C° 0.1 mm 11 mps 770 mmHg 76%
    06:00 -1°C° 0.1 mm 11 mps 771 mmHg 77%
    07:00 -1°C° 0.1 mm 11 mps 771 mmHg 78%
    08:00 -1°C° 0.1 mm 11 mps 771 mmHg 79%
    09:00 +1°C° 0 mm 11 mps 771 mmHg 77%
    10:00 +1°C° 0 mm 11 mps 771 mmHg 75%
    11:00 +1°C° 0 mm 11 mps 771 mmHg 74%
    12:00 +1°C° 0 mm 11 mps 771 mmHg 74%
    13:00 +1°C° 0 mm 11 mps 771 mmHg 74%
    14:00 +1°C° 0 mm 11 mps 770 mmHg 74%
    15:00 +2°C° 0 mm 11 mps 770 mmHg 73%
    16:00 +2°C° 0 mm 11 mps 771 mmHg 73%
    17:00 +2°C° 0 mm 10 mps 771 mmHg 72%
    18:00 +2°C° 0 mm 10 mps 771 mmHg 71%
    19:00 +3°C° 0 mm 10 mps 771 mmHg 70%
    20:00 +3°C° 0 mm 10 mps 771 mmHg 69%
    21:00 +3°C° 0 mm 10 mps 771 mmHg 71%
    22:00 +3°C° 0 mm 10 mps 771 mmHg 72%
    23:00 +3°C° 0 mm 10 mps 771 mmHg 73%
    Show more